Location: Bad Dürkheim
(49.4618°N, 8.1724°E)
Time: 21:22:17
(UTC+00:00)

CZ-4C R/B - Pass Details

Date: 14 June 2025
Orbit: 425 x 534 km, 98.0° (Epoch: 16 July)

Event Time Altitude Azimuth Distance (km) Brightness Sun altitude
Rises 22:45:20 0° 6° (N) 2,412 8.1 -16.6°
Reaches altitude 10° 22:47:28 10° 356° (N) 1,533 6.9 -16.7°
Maximum altitude 22:50:26 33° 291° (WNW) 750 4.3 -16.8°
Enters shadow 22:52:14 19° 238° (WSW) 1,103 4.6 -16.8°
